Weather History for KMNE - November, 2013

Change the Weather History Date:

Wednesday, November 13, 2013

  Actual Average (KBAD) Record (KBAD)
Temperature  
Mean Temperature 40 °F -  
Max Temperature 52 °F 63 °F 82 °F (2005)
Min Temperature 28 °F 44 °F 27 °F (2013)
Degree Days  
Heating Degree Days 25    
Moisture  
Dew Point 26 °F    
Average Humidity 68    
Maximum Humidity 96    
Minimum Humidity 30    
Precipitation  
Precipitation 0.00 in - - ()
Sea Level Pressure  
Sea Level Pressure 30.58 in    
Wind  
Wind Speed 2 mph (NNE)    
Max Wind Speed 9 mph    
Max Gust Speed -    
Visibility 10 miles    
Events      
Averages and records for this station are not official NWS values.
T = Trace of Precipitation, MM = Missing Value Source: NWS Daily Summary

Daily Weather History Graph

Daily Weather History Graph

Search for Another Location

Airport or City:

Trip Planner

Search our weather history database for the weather conditions in past years. The results will help you decide how hot, cold, wet, or windy it might be!

Date:

Astronomy

Nov. 13, 2013 Rise Set
Actual Time 6:41 AM CST 5:13 PM CST
Civil Twilight 6:15 AM CST 5:39 PM CST
Nautical Twilight 5:45 AM CST 6:08 PM CST
Astronomical Twilight 5:16 AM CST 6:37 PM CST
Moon 2:50 PM CST (11/13) 2:47 AM CST (11/13)
Length of Visible Light 11h 23m
Length of Day
10h 31m
Waxing Gibbous, 85% of the Moon is Illuminated
Nov 13
Waxing Gibbous
Nov 17
Full
Nov 25
Last Quarter
Dec 2
New
Dec 9
First Quarter

Hourly Weather History & Observations

Time (CST) Temp. Windchill Dew Point Humidity Pressure Visibility Wind Dir Wind Speed Gust Speed Precip Events Conditions
12:15 AM 33.1 °F - 25.3 °F 73% 30.66 in 10.0 mi Calm Calm - N/A   Clear
12:35 AM 32.0 °F 28.7 °F 26.8 °F 81% 30.65 in 10.0 mi North 3.5 mph - N/A   Clear
12:55 AM 31.8 °F 28.5 °F 27.5 °F 84% 30.65 in 10.0 mi North 3.5 mph - N/A   Clear
1:15 AM 30.9 °F 27.5 °F 27.5 °F 87% 30.66 in 10.0 mi North 3.5 mph - N/A   Clear
1:35 AM 30.9 °F 27.5 °F 26.6 °F 84% 30.65 in 10.0 mi North 3.5 mph - N/A   Clear
1:55 AM 30.4 °F 25.6 °F 26.4 °F 85% 30.66 in 10.0 mi North 4.6 mph - N/A   Clear
2:15 AM 30.7 °F 27.3 °F 26.1 °F 83% 30.66 in 10.0 mi North 3.5 mph - N/A   Clear
2:35 AM 30.2 °F - 25.7 °F 83% 30.66 in 10.0 mi Calm Calm - N/A   Clear
2:55 AM 30.2 °F - 25.7 °F 83% 30.66 in 10.0 mi Calm Calm - N/A   Clear
3:15 AM 29.8 °F 26.3 °F 25.5 °F 84% 30.67 in 10.0 mi North 3.5 mph - N/A   Clear
3:35 AM 30.0 °F - 25.2 °F 82% 30.66 in 10.0 mi Calm Calm - N/A   Clear
3:55 AM 29.8 °F 26.3 °F 25.2 °F 83% 30.66 in 10.0 mi North 3.5 mph - N/A   Clear
4:15 AM 29.7 °F - 24.8 °F 82% 30.65 in 10.0 mi Calm Calm - N/A   Clear
4:35 AM 29.5 °F - 24.8 °F 83% 30.66 in 10.0 mi Calm Calm - N/A   Clear
4:55 AM 29.3 °F 25.6 °F 24.8 °F 83% 30.67 in 10.0 mi North 3.5 mph - N/A   Clear
5:15 AM 28.9 °F 25.2 °F 24.8 °F 84% 30.67 in 10.0 mi North 3.5 mph - N/A   Clear
5:35 AM 29.3 °F - 24.8 °F 83% 30.67 in 10.0 mi Calm Calm - N/A   Clear
5:55 AM 28.9 °F 25.2 °F 25.0 °F 85% 30.68 in 10.0 mi North 3.5 mph - N/A   Clear
6:15 AM 28.8 °F 25.0 °F 24.6 °F 84% 30.67 in 10.0 mi North 3.5 mph - N/A   Clear
6:35 AM 28.4 °F 24.6 °F 24.4 °F 85% 30.67 in 10.0 mi North 3.5 mph - N/A   Clear
6:55 AM 28.8 °F 25.0 °F 24.3 °F 83% 30.68 in 10.0 mi North 3.5 mph - N/A   Clear
7:15 AM 29.5 °F - 24.8 °F 83% 30.68 in 10.0 mi Calm Calm - N/A   Clear
7:35 AM 30.6 °F 27.1 °F 24.8 °F 79% 30.68 in 10.0 mi North 3.5 mph - N/A   Clear
7:55 AM 32.0 °F - 25.5 °F 77% 30.68 in 10.0 mi Calm Calm - N/A   Clear
8:15 AM 33.6 °F 28.4 °F 25.7 °F 73% 30.68 in 10.0 mi NNE 5.8 mph - N/A   Clear
8:35 AM 35.6 °F 32.8 °F 25.3 °F 66% 30.68 in 10.0 mi NNE 3.5 mph - N/A   Clear
8:55 AM 37.2 °F 33.6 °F 25.7 °F 63% 30.68 in 10.0 mi NE 4.6 mph - N/A   Clear
9:15 AM 38.8 °F 34.6 °F 25.0 °F 58% 30.68 in 10.0 mi NNE 5.8 mph - N/A   Clear
9:35 AM 40.5 °F 35.8 °F 24.8 °F 54% 30.68 in 10.0 mi NNE 6.9 mph - N/A   Clear
9:55 AM 42.1 °F 36.6 °F 24.3 °F 49% 30.68 in 10.0 mi East 9.2 mph - N/A   Clear
10:15 AM 43.5 °F 38.9 °F 24.1 °F 46% 30.67 in 10.0 mi ENE 8.1 mph - N/A   Clear
10:35 AM 44.2 °F 40.3 °F 23.2 °F 43% 30.66 in 10.0 mi North 6.9 mph - N/A   Clear
10:55 AM 45.5 °F 41.8 °F 23.0 °F 41% 30.65 in 10.0 mi NE 6.9 mph - N/A   Clear
11:15 AM 46.4 °F 43.5 °F 22.8 °F 39% 30.65 in 10.0 mi NNE 5.8 mph - N/A   Clear
11:35 AM 46.6 °F - 21.4 °F 37% 30.63 in 10.0 mi NE 6.9 mph - N/A   Clear
11:55 AM 47.5 °F - 21.2 °F 35% 30.62 in 10.0 mi North 9.2 mph - N/A   Clear
12:15 PM 47.5 °F - 21.2 °F 35% 30.60 in 10.0 mi NNE 5.8 mph - N/A   Clear
12:35 PM 48.9 °F - 21.9 °F 35% 30.59 in 10.0 mi East 5.8 mph - N/A   Clear
12:55 PM 50.2 °F - 21.7 °F 33% 30.57 in 10.0 mi ENE 6.9 mph - N/A   Clear
1:35 PM 50.2 °F - 21.7 °F 33% 30.55 in 10.0 mi East 3.5 mph - N/A   Clear
1:55 PM 51.6 °F - 21.9 °F 31% 30.54 in 10.0 mi ENE 4.6 mph - N/A   Clear
2:15 PM 51.6 °F - 21.6 °F 31% 30.53 in 10.0 mi Calm Calm - N/A   Clear
2:35 PM 52.2 °F - 21.9 °F 31% 30.52 in 10.0 mi ENE 6.9 mph - N/A   Clear
2:55 PM 52.2 °F - 21.6 °F 30% 30.51 in 10.0 mi Calm Calm - N/A   Clear
3:15 PM 52.7 °F - 21.6 °F 30% 30.51 in 10.0 mi East 3.5 mph - N/A   Clear
3:35 PM 52.2 °F - 21.6 °F 30% 30.51 in 10.0 mi East 5.8 mph - N/A   Clear
3:55 PM 51.6 °F - 21.7 °F 31% 30.50 in 10.0 mi Calm Calm - N/A   Clear
4:15 PM 51.3 °F - 23.2 °F 33% 30.50 in 10.0 mi Calm Calm - N/A   Clear
4:35 PM 50.5 °F - 23.7 °F 35% 30.50 in 10.0 mi Calm Calm - N/A   Clear
4:55 PM 49.5 °F - 25.0 °F 38% 30.49 in 10.0 mi Calm Calm - N/A   Clear
5:15 PM 46.2 °F - 28.2 °F 50% 30.49 in 10.0 mi Calm Calm - N/A   Clear
5:35 PM 42.1 °F - 32.9 °F 70% 30.49 in 10.0 mi Calm Calm - N/A   Clear
5:55 PM 40.8 °F - 31.6 °F 70% 30.49 in 10.0 mi Calm Calm - N/A   Clear
6:15 PM 39.7 °F - 32.0 °F 74% 30.49 in 10.0 mi Calm Calm - N/A   Clear
6:35 PM 38.3 °F - 32.4 °F 79% 30.49 in 10.0 mi Calm Calm - N/A   Clear
6:55 PM 37.4 °F - 33.1 °F 84% 30.49 in 10.0 mi Calm Calm - N/A   Clear
7:15 PM 35.6 °F - 32.5 °F 89% 30.49 in 10.0 mi Calm Calm - N/A   Clear
7:35 PM 35.6 °F - 32.5 °F 89% 30.49 in 10.0 mi Calm Calm - N/A   Clear
7:55 PM 35.8 °F - 32.2 °F 87% 30.49 in 10.0 mi Calm Calm - N/A   Clear
8:15 PM 34.7 °F - 32.0 °F 90% 30.49 in 10.0 mi Calm Calm - N/A   Clear
8:35 PM 34.3 °F - 32.0 °F 91% 30.48 in 10.0 mi Calm Calm - N/A   Clear
8:55 PM 34.7 °F - 31.8 °F 89% 30.48 in 10.0 mi Calm Calm - N/A   Clear
9:15 PM 33.8 °F - 31.8 °F 92% 30.48 in 10.0 mi Calm Calm - N/A   Clear
9:35 PM 32.9 °F - 31.5 °F 94% 30.48 in 10.0 mi Calm Calm - N/A   Clear
9:55 PM 32.5 °F - 30.9 °F 94% 30.48 in 10.0 mi Calm Calm - N/A   Clear
10:15 PM 32.2 °F - 30.9 °F 95% 30.47 in 10.0 mi Calm Calm - N/A   Clear
10:35 PM 32.0 °F - 30.9 °F 96% 30.47 in 10.0 mi Calm Calm - N/A   Clear
10:55 PM 31.8 °F - 30.2 °F 94% 30.46 in 10.0 mi Calm Calm - N/A   Clear
11:15 PM 32.0 °F - 30.9 °F 96% 30.45 in 10.0 mi Calm Calm - N/A   Clear
11:35 PM 31.8 °F - 30.2 °F 94% 30.45 in 10.0 mi Calm Calm - N/A   Clear
11:55 PM 32.0 °F - 30.2 °F 93% 30.44 in 10.0 mi Calm Calm - N/A   Clear